• în România
  • Lista ţărilor
  • Pe 7 zile
  • Temperatura apei
  • Hartă satelitară
  • Meteo pe hartă
  • Widget-uri
  • user-avatar
    Intrare

    Meteo pe oră la Bucureşti

    Astăzi, 21 August, Luni

    Timp Temperatura Precipitaţii Vânt Presiune Umiditate
    00:00 +25°C° 0 mm 2 m/s 752 mmHg 55%
    01:00 +25°C° 0 mm 2 m/s 752 mmHg 59%
    02:00 +23°C° 0 mm 2 m/s 752 mmHg 70%
    03:00 +23°C° 0 mm 2 m/s 752 mmHg 69%
    04:00 +23°C° 0 mm 2 m/s 752 mmHg 69%
    05:00 +23°C° 0 mm 2 m/s 752 mmHg 68%
    06:00 +24°C° 0 mm 2 m/s 752 mmHg 61%
    07:00 +25°C° 0 mm 2 m/s 752 mmHg 54%
    08:00 +27°C° 0 mm 3 m/s 752 mmHg 48%
    09:00 +29°C° 0 mm 3 m/s 752 mmHg 42%
    10:00 +30°C° 0 mm 3 m/s 752 mmHg 36%
    11:00 +33°C° 0 mm 4 m/s 751 mmHg 30%
    12:00 +34°C° 0 mm 3 m/s 751 mmHg 28%
    13:00 +34°C° 0 mm 3 m/s 751 mmHg 26%
    14:00 +35°C° 0 mm 2 m/s 750 mmHg 24%
    15:00 +34°C° 0 mm 3 m/s 750 mmHg 26%
    16:00 +33°C° 0 mm 3 m/s 750 mmHg 28%
    17:00 +33°C° 0 mm 3 m/s 750 mmHg 30%
    18:00 +29°C° 0,4 mm 4 m/s 751 mmHg 39%
    19:00 +27°C° 0,4 mm 4 m/s 751 mmHg 49%
    20:00 +25°C° 0,4 mm 5 m/s 751 mmHg 58%
    21:00 +23°C° 0,9 mm 4 m/s 751 mmHg 63%
    22:00 +21°C° 0,9 mm 3 m/s 752 mmHg 69%
    23:00 +20°C° 0,9 mm 2 m/s 752 mmHg 75%

    Mâine, 22 August, Marţi

    Timp Temperatura Precipitaţii Vânt Presiune Umiditate
    00:00 +20°C° 1,2 mm 2 m/s 752 mmHg 77%
    01:00 +19°C° 1,2 mm 2 m/s 752 mmHg 80%
    02:00 +20°C° 1,2 mm 1 m/s 753 mmHg 82%
    03:00 +19°C° 1,2 mm 2 m/s 753 mmHg 83%
    04:00 +18°C° 1,2 mm 2 m/s 753 mmHg 85%
    05:00 +18°C° 1,2 mm 2 m/s 753 mmHg 86%
    06:00 +18°C° 1,2 mm 2 m/s 753 mmHg 82%
    07:00 +19°C° 1,2 mm 2 m/s 753 mmHg 79%
    08:00 +19°C° 1,2 mm 2 m/s 754 mmHg 76%
    09:00 +20°C° 0,4 mm 2 m/s 754 mmHg 69%
    10:00 +22°C° 0,4 mm 3 m/s 754 mmHg 62%
    11:00 +24°C° 0,4 mm 3 m/s 754 mmHg 56%
    12:00 +25°C° 0,3 mm 3 m/s 754 mmHg 51%
    13:00 +26°C° 0,3 mm 3 m/s 753 mmHg 47%
    14:00 +26°C° 0,3 mm 3 m/s 753 mmHg 43%
    15:00 +27°C° 0 mm 2 m/s 753 mmHg 42%
    16:00 +27°C° 0 mm 2 m/s 753 mmHg 40%
    17:00 +27°C° 0 mm 2 m/s 752 mmHg 39%
    18:00 +26°C° 0 mm 2 m/s 753 mmHg 43%
    19:00 +24°C° 0 mm 2 m/s 753 mmHg 47%
    20:00 +23°C° 0 mm 2 m/s 753 mmHg 51%
    21:00 +21°C° 0 mm 2 m/s 753 mmHg 53%
    22:00 +21°C° 0 mm 2 m/s 754 mmHg 54%
    23:00 +20°C° 0 mm 2 m/s 754 mmHg 56%

    Poimâine, 23 August, Miercuri

    Timp Temperatura Precipitaţii Vânt Presiune Umiditate
    00:00 +19°C° 0 mm 2 m/s 754 mmHg 56%
    01:00 +19°C° 0 mm 2 m/s 754 mmHg 56%
    02:00 +18°C° 0 mm 2 m/s 754 mmHg 56%
    03:00 +18°C° 0 mm 2 m/s 754 mmHg 57%
    04:00 +17°C° 0 mm 2 m/s 754 mmHg 58%
    05:00 +18°C° 0 mm 1 m/s 754 mmHg 59%
    06:00 +18°C° 0 mm 2 m/s 754 mmHg 55%
    07:00 +19°C° 0 mm 2 m/s 754 mmHg 52%
    08:00 +21°C° 0 mm 2 m/s 754 mmHg 49%
    09:00 +23°C° 0 mm 2 m/s 754 mmHg 44%
    10:00 +25°C° 0 mm 2 m/s 754 mmHg 40%
    11:00 +27°C° 0 mm 3 m/s 754 mmHg 35%
    12:00 +28°C° 0 mm 3 m/s 754 mmHg 32%
    13:00 +28°C° 0 mm 3 m/s 754 mmHg 29%
    14:00 +29°C° 0 mm 3 m/s 753 mmHg 26%
    15:00 +29°C° 0 mm 3 m/s 754 mmHg 26%
    16:00 +29°C° 0 mm 3 m/s 754 mmHg 25%
    17:00 +29°C° 0 mm 3 m/s 754 mmHg 25%
    18:00 +27°C° 0 mm 3 m/s 754 mmHg 29%
    19:00 +26°C° 0 mm 3 m/s 755 mmHg 33%
    20:00 +23°C° 0 mm 4 m/s 755 mmHg 37%
    21:00 +22°C° 0 mm 3 m/s 755 mmHg 39%
    22:00 +21°C° 0 mm 3 m/s 756 mmHg 41%
    23:00 +19°C° 0 mm 2 m/s 756 mmHg 43%

    24 August, Joi

    Timp Temperatura Precipitaţii Vânt Presiune Umiditate
    00:00 +19°C° 0 mm 2 m/s 756 mmHg 44%
    01:00 +18°C° 0 mm 2 m/s 756 mmHg 45%
    02:00 +18°C° 0 mm 2 m/s 757 mmHg 46%
    03:00 +17°C° 0 mm 2 m/s 757 mmHg 48%
    04:00 +17°C° 0 mm 2 m/s 757 mmHg 51%
    05:00 +17°C° 0 mm 2 m/s 757 mmHg 53%
    06:00 +18°C° 0 mm 2 m/s 757 mmHg 51%
    07:00 +19°C° 0 mm 2 m/s 758 mmHg 49%
    08:00 +20°C° 0 mm 2 m/s 758 mmHg 47%
    09:00 +23°C° 0 mm 2 m/s 758 mmHg 43%
    10:00 +25°C° 0 mm 2 m/s 758 mmHg 39%
    11:00 +26°C° 0 mm 2 m/s 758 mmHg 34%
    12:00 +27°C° 0 mm 2 m/s 758 mmHg 31%
    13:00 +28°C° 0 mm 2 m/s 757 mmHg 28%
    14:00 +29°C° 0 mm 2 m/s 757 mmHg 25%
    15:00 +29°C° 0 mm 2 m/s 757 mmHg 25%
    16:00 +29°C° 0 mm 2 m/s 757 mmHg 24%
    17:00 +29°C° 0 mm 2 m/s 757 mmHg 23%
    18:00 +28°C° 0 mm 1 m/s 757 mmHg 26%
    19:00 +26°C° 0 mm 1 m/s 757 mmHg 29%
    20:00 +24°C° 0 mm 1 m/s 758 mmHg 32%
    21:00 +23°C° 0 mm 1 m/s 758 mmHg 34%
    22:00 +23°C° 0 mm 2 m/s 758 mmHg 35%
    23:00 +21°C° 0 mm 2 m/s 759 mmHg 37%

    25 August, Vineri

    Timp Temperatura Precipitaţii Vânt Presiune Umiditate
    00:00 +22°C° 0 mm 1 m/s 759 mmHg 40%
    01:00 +21°C° 0 mm 1 m/s 759 mmHg 43%
    02:00 +20°C° 0 mm 1 m/s 759 mmHg 47%
    03:00 +20°C° 0 mm 1 m/s 759 mmHg 48%
    04:00 +20°C° 0 mm 1 m/s 759 mmHg 49%
    05:00 +19°C° 0 mm 1 m/s 759 mmHg 50%
    06:00 +21°C° 0 mm 1 m/s 759 mmHg 47%
    07:00 +22°C° 0 mm 1 m/s 759 mmHg 43%
    08:00 +24°C° 0 mm 1 m/s 760 mmHg 40%
    09:00 +26°C° 0 mm 1 m/s 760 mmHg 36%
    10:00 +28°C° 0 mm 1 m/s 760 mmHg 32%
    11:00 +30°C° 0 mm 1 m/s 760 mmHg 29%
    12:00 +31°C° 0 mm 1 m/s 759 mmHg 26%
    13:00 +32°C° 0 mm 1 m/s 759 mmHg 24%
    14:00 +33°C° 0 mm 1 m/s 758 mmHg 22%
    15:00 +32°C° 0 mm 1 m/s 758 mmHg 22%
    16:00 +32°C° 0 mm 1 m/s 758 mmHg 22%
    17:00 +32°C° 0 mm 1 m/s 758 mmHg 21%
    18:00 +30°C° 0 mm 1 m/s 758 mmHg 25%
    19:00 +28°C° 0 mm 1 m/s 758 mmHg 28%
    20:00 +26°C° 0 mm 2 m/s 759 mmHg 31%
    21:00 +25°C° 0 mm 2 m/s 759 mmHg 34%
    22:00 +24°C° 0 mm 3 m/s 759 mmHg 37%
    23:00 +22°C° 0 mm 3 m/s 759 mmHg 40%

    26 August, Sâmbătă

    Timp Temperatura Precipitaţii Vânt Presiune Umiditate
    00:00 +23°C° 0 mm 2 m/s 759 mmHg 42%
    01:00 +21°C° 0 mm 2 m/s 759 mmHg 44%
    02:00 +21°C° 0 mm 1 m/s 759 mmHg 47%
    03:00 +21°C° 0 mm 1 m/s 759 mmHg 48%
    04:00 +21°C° 0 mm 1 m/s 759 mmHg 49%
    05:00 +20°C° 0 mm 1 m/s 759 mmHg 50%
    06:00 +22°C° 0 mm 1 m/s 759 mmHg 47%
    07:00 +23°C° 0 mm 1 m/s 759 mmHg 44%
    08:00 +25°C° 0 mm 1 m/s 759 mmHg 41%
    09:00 +27°C° 0 mm 2 m/s 759 mmHg 37%
    10:00 +29°C° 0 mm 2 m/s 759 mmHg 33%
    11:00 +31°C° 0 mm 2 m/s 759 mmHg 28%
    12:00 +32°C° 0 mm 2 m/s 759 mmHg 26%
    13:00 +32°C° 0 mm 2 m/s 758 mmHg 24%
    14:00 +34°C° 0 mm 2 m/s 758 mmHg 21%
    15:00 +34°C° 0 mm 2 m/s 758 mmHg 21%
    16:00 +34°C° 0 mm 2 m/s 757 mmHg 21%
    17:00 +34°C° 0 mm 2 m/s 757 mmHg 21%
    18:00 +31°C° 0 mm 2 m/s 757 mmHg 25%
    19:00 +29°C° 0 mm 2 m/s 758 mmHg 29%
    20:00 +27°C° 0 mm 2 m/s 758 mmHg 33%
    21:00 +26°C° 0 mm 2 m/s 758 mmHg 37%
    22:00 +25°C° 0 mm 2 m/s 758 mmHg 42%
    23:00 +24°C° 0 mm 2 m/s 758 mmHg 46%
    Arată mai mult